Weather History for Brno, Czech Republic

Change the Weather History Date:

Sunday, March 3, 2013

  Actual Average Record
Temperature  
Mean Temperature 34 °F -  
Max Temperature 43 °F 48 °F - ()
Min Temperature 24 °F 33 °F - ()
Degree Days  
Heating Degree Days 32    
Moisture  
Dew Point 24 °F    
Average Humidity 69    
Maximum Humidity 93    
Minimum Humidity 40    
Precipitation  
Precipitation 0.00 in 0.03 in - ()
Sea Level Pressure  
Sea Level Pressure 30.09 in    
Wind  
Wind Speed 5 mph ()    
Max Wind Speed 20 mph    
Max Gust Speed -    
Visibility 5.9 miles    
Events      
T = Trace of Precipitation, MM = Missing Value Source: Averaged Metar Reports

Daily Weather History Graph

Daily Weather History Graph

Search for Another Location

Airport:

Trip Planner

Search our weather history database for the weather conditions in past years. The results will help you decide how hot, cold, wet, or windy it might be!

Date:

Astronomy

Mar. 03, 2013 Rise Set
Actual Time 6:31 AM CET 5:39 PM CET
Civil Twilight 5:59 AM CET 6:11 PM CET
Nautical Twilight 5:23 AM CET 6:48 PM CET
Astronomical Twilight 4:46 AM CET 7:25 PM CET
Moon No Moon Rise 8:58 AM CET (3/3)
Length of Visible Light 12h 11m
Length of Day
11h 08m
Waning Gibbous, 66% of the Moon is Illuminated
Mar 3
Waning Gibbous
Mar 4
Last Quarter
Mar 11
New
Mar 19
First Quarter
Mar 27
Full

Hourly Weather History & Observations

Time (CET) Temp. Windchill Dew Point Humidity Pressure Visibility Wind Dir Wind Speed Gust Speed Precip Events Conditions
12:00 AM 28.4 °F 24.6 °F 23.0 °F 80% 30.09 in - WNW 3.5 mph - N/A   Clear
12:30 AM 28.4 °F 24.6 °F 23.0 °F 80% 30.09 in - WNW 3.5 mph - N/A   Clear
1:00 AM 29 °F - 23 °F 68% 30.17 in 12 mi WNW 2.2 mph - -   Clear
1:00 AM 28.4 °F 24.6 °F 23.0 °F 80% 30.09 in - WNW 3.5 mph - N/A   Clear
1:30 AM 26.6 °F - 23.0 °F 86% 30.09 in - Variable 1.2 mph - N/A   Clear
2:00 AM 28.4 °F 24.6 °F 23.0 °F 80% 30.09 in - SW 3.5 mph - N/A   Clear
2:30 AM 26.6 °F 22.6 °F 23.0 °F 86% 30.09 in - SSW 3.5 mph - N/A   Clear
3:00 AM 26.6 °F - 23.0 °F 86% 30.09 in - Variable 1.2 mph - N/A   Clear
3:30 AM 26.6 °F - 23.0 °F 86% 30.09 in 5.0 mi Calm Calm - N/A   Unknown
4:00 AM 26.6 °F - 23.0 °F 86% 30.06 in 5.0 mi Calm Calm - N/A   Unknown
4:30 AM 26.6 °F - 23.0 °F 86% 30.06 in 5.0 mi East 2.3 mph - N/A   Unknown
5:00 AM 24.8 °F - 23.0 °F 93% 30.06 in 3.7 mi SSW 2.3 mph - N/A   Unknown
5:30 AM 24.8 °F - 23.0 °F 93% 30.06 in 3.1 mi Calm Calm - N/A   Mist
6:00 AM 24.8 °F - 23.0 °F 93% 30.06 in 3.1 mi SE 1.2 mph - N/A   Mist
6:30 AM 23.0 °F - 21.2 °F 93% 30.06 in 3.1 mi Variable 1.2 mph - N/A   Mist
7:00 AM 25 °F - 22 °F 81% 30.14 in 2 mi NNW 4.5 mph - -   Mist
7:00 AM 24.8 °F - 23.0 °F 93% 30.06 in 2.2 mi Variable 2.3 mph - N/A   Mist
7:30 AM 24.8 °F - 23.0 °F 93% 30.06 in 3.1 mi Variable 2.3 mph - N/A   Mist
8:00 AM 26.6 °F - 23.0 °F 86% 30.06 in 3.1 mi Calm Calm - N/A   Mist
8:30 AM 28.4 °F - 24.8 °F 86% 30.09 in 3.7 mi Variable 2.3 mph - N/A   Unknown
9:00 AM 32.0 °F - 26.6 °F 80% 30.09 in 3.7 mi Variable 2.3 mph - N/A   Unknown
9:30 AM 33.8 °F 28.6 °F 24.8 °F 70% 30.09 in 5.0 mi SW 5.8 mph - N/A   Unknown
10:00 AM 35.6 °F 29.9 °F 24.8 °F 65% 30.09 in 6.2 mi West 6.9 mph - N/A   Partly Cloudy
10:30 AM 37.4 °F 32.1 °F 24.8 °F 60% 30.09 in 6.2 mi West 6.9 mph - N/A   Partly Cloudy
11:00 AM 39.2 °F 34.2 °F 24.8 °F 56% 30.09 in 6.2 mi WNW 6.9 mph - N/A   Partly Cloudy
11:30 AM 41.0 °F 39.0 °F 26.6 °F 57% 30.09 in 6.2 mi Variable 3.5 mph - N/A   Scattered Clouds
12:00 PM 41.0 °F 37.1 °F 26.6 °F 57% 30.06 in 6.2 mi SSW 5.8 mph - N/A   Mostly Cloudy
12:30 PM 42.8 °F 35.1 °F 26.6 °F 53% 30.06 in 6.2 mi WNW 16.1 mph - N/A   Mostly Cloudy
1:00 PM 42 °F - 26 °F 40% 30.11 in 16 mi NW 11.2 mph - -   Mostly Cloudy
1:00 PM 41.0 °F 33.9 °F 26.6 °F 57% 30.06 in 6.2 mi NW 12.7 mph - N/A   Mostly Cloudy
1:30 PM 41.0 °F 32.8 °F 26.6 °F 57% 30.06 in 6.2 mi WNW 16.1 mph - N/A   Mostly Cloudy
2:00 PM 42.8 °F 34.8 °F 26.6 °F 53% 30.06 in 6.2 mi NW 17.3 mph - N/A   Mostly Cloudy
2:30 PM 41.0 °F 31.9 °F 26.6 °F 57% 30.06 in 6.2 mi WNW 19.6 mph - N/A   Mostly Cloudy
3:00 PM 39.2 °F 30.8 °F 26.6 °F 61% 30.06 in 6.2 mi NW 15.0 mph - N/A   Mostly Cloudy
3:30 PM 39.2 °F 30.8 °F 24.8 °F 56% 30.06 in 6.2 mi WNW 15.0 mph - N/A   Mostly Cloudy
4:00 PM 39.2 °F 30.8 °F 24.8 °F 56% 30.06 in 6.2 mi NW 15.0 mph - N/A   Mostly Cloudy
4:30 PM 39.2 °F 30.2 °F 24.8 °F 56% 30.06 in 6.2 mi WNW 17.3 mph - N/A   Mostly Cloudy
5:00 PM 37.4 °F 28.5 °F 24.8 °F 60% 30.06 in 6.2 mi NW 15.0 mph - N/A   Mostly Cloudy
5:30 PM 37.4 °F 28.2 °F 24.8 °F 60% 30.06 in 6.2 mi NW 16.1 mph - N/A   Mostly Cloudy
6:00 PM 37.4 °F 28.9 °F 23.0 °F 56% 30.09 in 6.2 mi WNW 13.8 mph - N/A   Mostly Cloudy
6:30 PM 37.4 °F 31.4 °F 24.8 °F 60% 30.09 in 6.2 mi NW 8.1 mph - N/A   Mostly Cloudy
7:00 PM 36 °F - 24 °F 48% 30.15 in 12 mi NNW 6.7 mph - -   Mostly Cloudy
7:00 PM 35.6 °F 30.7 °F 24.8 °F 65% 30.09 in 6.2 mi North 5.8 mph - N/A   Mostly Cloudy
7:30 PM 35.6 °F 28.6 °F 24.8 °F 65% 30.09 in 6.2 mi NNW 9.2 mph - N/A   Mostly Cloudy
8:00 PM 35.6 °F 28.6 °F 23.0 °F 60% 30.12 in 6.2 mi NNW 9.2 mph - N/A   Mostly Cloudy
8:30 PM 35.6 °F 28.6 °F 23.0 °F 60% 30.12 in 6.2 mi NNW 9.2 mph - N/A   Mostly Cloudy
9:00 PM 35.6 °F 27.5 °F 23.0 °F 60% 30.15 in 6.2 mi North 11.5 mph - N/A   Mostly Cloudy
9:30 PM 35.6 °F 28.0 °F 23.0 °F 60% 30.15 in 6.2 mi North 10.4 mph - N/A   Mostly Cloudy
10:00 PM 35.6 °F 29.2 °F 23.0 °F 60% 30.15 in 6.2 mi NNW 8.1 mph - N/A   Mostly Cloudy
10:30 PM 35.6 °F 27.5 °F 23.0 °F 60% 30.15 in 6.2 mi NNW 11.5 mph - N/A   Mostly Cloudy
11:00 PM 35.6 °F 28.0 °F 23.0 °F 60% 30.15 in 6.2 mi NNW 10.4 mph - N/A   Mostly Cloudy
11:30 PM 35.6 °F 29.2 °F 23.0 °F 60% 30.18 in 6.2 mi NNW 8.1 mph - N/A   Scattered Clouds